Wind_Speed
21 21 21 18 17 15 15 16 16 15 17 18 19 22 23 22 24 25 25 26 27 28 30 30 31 31 33 34 35 36 37 37 37 37 38 39 40 40 41 41 40 40 39 38
21 21 19 16 15 14 14 14 14 14 16 18 18 19 21 22 22 23 24 26 27 27 29 30 31 32 33 33 35 37 37 37 37 37 37 38 38 40 40 40 40 41 40 39
21 20 18 15 14 14 14 14 14 15 16 16 19 20 21 21 22 23 24 25 27 27 28 30 32 31 31 32 35 37 37 38 38 38 37 38 39 39 39 39 40 41 41 40
20 19 16 14 14 14 14 14 14 15 16 16 18 20 20 21 21 22 23 25 26 27 28 29 31 30 30 30 32 35 37 38 39 37 36 37 39 39 39 40 40 40 40 39
18 16 15 13 13 13 14 14 15 15 16 17 17 19 19 21 21 21 22 23 26 27 28 29 30 31 30 31 32 34 36 38 38 37 36 36 38 39 39 39 40 40 42 41
18 16 15 14 13 13 13 13 14 15 16 17 17 20 21 21 21 21 22 23 25 27 27 28 28 29 30 30 32 32 34 37 37 37 36 35 36 38 39 40 39 39 40 41
17 16 15 14 14 14 13 14 14 15 16 17 17 20 21 21 20 21 22 23 24 26 27 28 28 28 28 29 30 32 32 34 36 37 36 36 36 37 39 39 39 38 38 39
18 16 16 16 15 15 14 15 15 17 18 18 18 20 21 21 21 21 22 23 23 24 26 26 27 28 28 29 30 31 32 33 35 36 36 36 36 36 38 39 39 39 38 38
18 17 16 17 16 16 16 16 17 18 18 19 19 20 21 21 21 21 23 24 24 23 24 25 26 27 28 29 31 32 32 33 34 35 36 36 36 37 37 38 37 38 38 38
20 19 17 17 17 17 17 17 17 17 18 18 19 19 20 21 22 22 22 23 23 23 24 25 26 27 28 30 31 32 32 33 33 35 35 36 36 35 35 36 37 38 38 38
20 20 18 17 17 17 17 17 17 17 18 19 20 20 19 20 21 22 23 23 23 23 24 26 27 28 29 30 30 31 31 32 33 34 34 35 36 37 37 37 36 38 38 38
20 20 20 18 18 18 18 17 17 18 19 20 21 21 18 19 20 21 22 23 23 24 25 26 26 27 28 29 29 30 31 31 32 34 34 34 34 35 37 38 38 38 39 39
22 22 21 20 20 20 19 18 17 18 19 20 22 21 18 19 19 20 21 22 23 23 24 25 25 26 27 28 29 30 31 31 32 33 35 35 34 35 36 37 38 38 39 40
23 23 22 21 21 21 20 19 19 20 20 21 20 20 18 19 20 20 20 22 23 23 23 24 24 25 26 27 27 28 30 30 31 32 33 34 34 34 35 35 36 37 38 39
24 24 23 22 21 21 20 20 20 21 21 22 21 19 18 18 19 20 20 21 22 23 24 24 24 25 25 25 26 27 28 29 29 30 32 32 33 34 35 35 35 36 36 37
24 24 24 23 23 22 21 20 21 21 21 21 21 19 20 20 21 21 21 21 22 23 23 24 24 24 24 25 25 25 25 26 27 28 30 31 31 32 33 34 35 36 36 36
23 24 24 24 24 24 22 21 21 21 21 22 21 21 21 22 22 23 22 23 23 23 23 23 23 24 24 24 25 25 25 25 26 27 28 29 29 30 31 32 34 35 36 36
24 24 25 25 25 24 22 21 21 21 21 22 22 22 22 22 22 23 23 23 24 24 23 23 24 24 25 25 24 24 25 25 25 26 27 28 29 30 31 32 33 34 35 35
24 25 25 25 24 24 21 21 21 21 21 21 22 22 21 22 22 23 24 24 24 24 25 24 24 24 24 25 25 25 26 26 26 26 27 28 29 30 32 33 33 34 35 35
25 24 24 23 23 23 21 21 21 21 21 21 22 22 22 22 22 22 23 23 24 23 23 24 25 25 25 25 25 25 26 26 27 28 28 29 30 31 32 33 34 34 35 35
24 24 24 24 24 23 21 21 22 22 21 22 22 22 22 22 23 23 24 24 24 24 24 24 25 25 25 26 26 26 26 27 27 28 29 30 31 32 32 33 34 34 35 35
23 24 24 24 25 23 22 22 22 22 22 21 21 22 22 22 23 23 24 25 25 25 25 25 25 26 26 26 27 27 28 28 28 29 29 30 31 31 32 33 33 34 34 35
23 23 24 23 23 23 23 23 22 22 22 22 22 22 22 23 23 24 24 24 25 26 26 26 27 27 27 28 28 29 29 30 30 31 31 31 32 32 32 33 33 34 35 35
22 22 23 23 22 22 22 22 22 22 22 22 22 22 22 22 23 23 24 24 25 26 27 28 28 28 28 29 29 30 30 31 32 32 33 33 33 33 33 34 34 34 35 35
24 24 23 23 23 22 22 22 23 23 23 23 23 24 23 23 23 23 23 24 25 26 26 27 28 28 28 29 30 30 31 31 31 32 33 33 34 34 34 34 35 35 35 35
24 24 24 24 24 24 23 24 24 24 24 24 24 24 24 24 25 24 24 24 25 25 26 26 26 27 28 29 29 30 31 31 32 32 33 33 33 34 34 34 34 34 34 34
Wind_Direction
315 313 311 307 303 293 289 285 280 268 256 252 250 245 242 242 244 247 248 248 247 246 247 248 249 247 245 242 238 237 239 239 240 241 242 240 241 241 242 243 245 246 249 251
317 315 312 305 297 293 292 286 281 269 261 253 252 250 246 245 246 249 250 250 249 248 250 249 249 247 245 244 240 239 240 240 242 243 243 241 242 241 242 243 245 246 248 251
318 318 310 300 297 294 291 286 278 270 266 258 255 252 250 249 249 250 249 251 253 253 252 250 248 247 245 245 242 241 241 241 242 244 245 243 242 243 244 245 246 247 249 251
315 314 308 301 298 293 286 284 277 272 266 260 255 255 253 254 257 255 253 253 256 255 254 252 249 247 246 245 245 243 242 242 242 245 247 246 245 244 245 246 247 248 249 251
314 314 311 307 303 297 285 282 276 273 271 264 262 259 259 257 257 256 256 258 258 256 254 250 249 248 247 246 245 245 244 243 243 246 248 251 249 247 247 248 249 251 251 252
313 308 309 310 305 300 290 281 277 276 272 268 265 261 259 258 261 261 260 261 261 258 255 250 249 248 249 248 246 247 246 245 245 246 249 251 252 250 250 250 251 252 253 254
312 307 305 305 303 298 290 287 280 277 275 272 270 267 264 262 267 266 265 266 265 261 257 254 251 250 250 251 250 249 249 250 248 247 249 251 254 254 252 251 251 253 254 254
311 305 303 302 300 302 293 290 285 282 276 273 271 270 269 267 271 268 266 268 268 263 259 257 255 253 252 253 253 251 249 251 250 250 251 253 254 255 254 252 252 253 254 256
309 303 302 301 299 298 295 289 284 282 279 276 274 272 269 269 269 269 268 269 269 265 259 257 255 255 253 254 254 252 252 253 253 252 252 254 254 254 254 253 253 254 256 258
307 303 301 300 299 299 296 293 283 280 279 281 278 275 270 269 271 270 271 271 269 268 262 259 255 255 255 255 255 253 253 253 254 254 255 255 254 256 257 255 255 255 256 258
309 307 303 300 302 301 298 293 285 281 282 282 284 280 275 274 274 272 270 271 269 268 265 264 262 259 256 257 256 254 254 256 257 257 258 258 257 258 258 257 256 256 257 259
309 310 306 301 301 301 300 296 291 286 284 284 284 286 284 277 276 276 273 271 271 269 268 268 265 263 260 259 259 258 258 259 260 260 259 260 260 259 259 258 258 257 257 259
307 309 308 302 298 298 298 295 290 288 287 288 287 289 289 280 279 279 277 273 273 273 272 271 267 264 263 262 263 263 262 261 261 261 260 260 261 261 260 260 259 259 258 259
303 305 305 303 302 299 294 293 289 285 284 288 291 293 289 280 278 277 276 276 276 277 275 274 271 266 265 264 265 265 263 262 263 262 261 261 262 262 261 261 260 261 260 260
300 301 300 299 298 297 292 288 286 285 284 287 292 292 291 283 279 278 276 276 277 277 275 274 272 270 268 267 266 266 265 264 265 264 263 263 263 264 263 263 263 263 264 263
300 300 297 296 295 294 291 290 287 286 284 286 289 288 290 286 280 278 278 278 278 279 276 274 273 270 268 268 268 266 265 266 268 267 266 265 266 266 265 264 264 263 264 266
303 301 297 296 294 290 289 290 289 288 285 283 284 285 287 284 279 279 280 280 280 281 280 277 275 272 270 270 270 268 267 267 270 269 269 269 269 268 268 267 266 265 265 267
303 301 298 296 294 291 290 288 287 287 285 282 282 284 286 285 283 281 281 282 281 281 279 277 275 274 272 271 271 270 269 270 272 272 271 271 271 270 270 270 269 267 266 266
299 299 299 298 295 294 292 289 288 287 284 283 284 285 283 282 283 281 281 281 282 282 279 277 275 274 273 271 271 271 271 272 273 274 273 274 274 273 272 271 271 269 269 269
297 296 297 297 297 295 295 291 287 285 283 282 285 286 285 282 282 281 280 280 281 281 280 277 276 275 273 272 272 273 273 274 275 276 277 276 276 275 274 273 272 271 272 272
297 295 294 293 294 294 296 292 286 285 285 283 284 285 285 284 284 281 280 279 280 280 280 279 277 277 275 274 273 275 275 276 277 278 279 279 278 276 275 274 273 272 273 273
296 294 294 294 292 293 293 292 286 283 283 283 284 285 284 283 283 282 281 281 280 278 278 277 276 276 276 275 274 275 276 277 278 280 281 281 281 278 276 275 274 273 274 273
293 293 293 294 294 292 291 289 286 283 282 282 283 285 286 285 285 284 282 282 282 280 278 277 276 275 275 275 275 275 276 277 278 280 281 281 282 281 279 276 275 275 275 275
293 293 293 293 292 290 290 288 283 281 281 282 282 284 285 286 286 286 283 282 283 282 280 278 276 275 275 275 276 276 277 278 279 281 282 282 282 280 279 276 275 275 275 275
289 291 293 293 292 289 288 287 284 282 282 284 283 283 284 285 286 287 286 286 285 285 283 280 278 276 275 275 276 276 277 277 279 281 282 282 282 282 280 278 276 276 276 276
287 290 293 294 293 290 288 286 283 281 282 283 283 282 284 285 285 286 287 289 290 288 285 283 282 280 279 278 278 278 278 279 280 281 282 282 283 282 281 279 278 277 276 276
Height
5692 5690 5686 5683 5681 5680 5679 5678 5679 5680 5680 5682 5683 5686 5688 5691 5694 5696 5699 5701 5704 5707 5709 5711 5713 5715 5717 5719 5722 5726 5729 5732 5736 5739 5742 5745 5749 5752 5755 5759 5762 5765 5768 5770
5689 5686 5682 5679 5678 5676 5675 5675 5675 5677 5677 5678 5679 5681 5683 5686 5689 5691 5693 5695 5698 5700 5702 5704 5706 5707 5710 5712 5715 5718 5721 5725 5728 5731 5734 5737 5740 5744 5747 5751 5754 5757 5759 5762
5685 5682 5678 5676 5675 5674 5673 5673 5673 5673 5673 5675 5676 5678 5680 5682 5684 5686 5688 5691 5692 5694 5696 5698 5700 5701 5704 5706 5708 5711 5714 5718 5721 5724 5726 5729 5733 5735 5739 5742 5746 5749 5751 5754
5681 5678 5675 5674 5672 5671 5671 5671 5670 5670 5671 5672 5673 5674 5677 5677 5680 5682 5684 5686 5687 5688 5690 5691 5693 5695 5697 5699 5701 5704 5707 5710 5714 5717 5719 5722 5725 5728 5731 5734 5737 5740 5743 5745
5678 5675 5673 5671 5670 5669 5668 5668 5668 5667 5668 5669 5670 5670 5673 5674 5675 5678 5679 5680 5681 5683 5684 5685 5687 5690 5692 5693 5695 5697 5700 5703 5706 5709 5712 5714 5717 5720 5723 5726 5728 5731 5734 5737
5676 5673 5671 5669 5668 5667 5666 5666 5665 5664 5664 5666 5667 5667 5668 5669 5671 5673 5675 5675 5676 5677 5678 5679 5681 5683 5685 5687 5689 5691 5694 5696 5699 5702 5705 5707 5709 5712 5715 5718 5720 5723 5725 5728
5673 5671 5669 5667 5666 5665 5663 5662 5661 5661 5660 5662 5663 5663 5665 5666 5667 5668 5670 5670 5670 5671 5672 5673 5675 5677 5679 5681 5683 5685 5687 5690 5692 5694 5697 5699 5702 5704 5706 5709 5712 5714 5716 5719
5669 5668 5667 5665 5663 5662 5660 5660 5659 5658 5657 5658 5660 5659 5662 5662 5663 5663 5664 5664 5664 5665 5666 5668 5669 5671 5673 5675 5676 5678 5681 5683 5685 5687 5689 5692 5693 5695 5698 5700 5703 5705 5707 5709
5666 5665 5664 5662 5661 5659 5658 5656 5656 5655 5654 5654 5655 5656 5657 5657 5658 5658 5659 5659 5659 5660 5661 5662 5664 5665 5667 5668 5670 5672 5674 5676 5678 5679 5681 5683 5685 5687 5689 5691 5694 5696 5699 5700
5662 5662 5661 5660 5658 5657 5655 5653 5653 5651 5650 5649 5651 5652 5653 5652 5653 5653 5653 5653 5654 5654 5655 5656 5658 5659 5661 5662 5663 5665 5667 5668 5670 5672 5673 5675 5677 5679 5681 5683 5685 5688 5690 5691
5659 5658 5657 5656 5654 5653 5652 5650 5648 5647 5646 5646 5645 5649 5648 5648 5648 5648 5648 5648 5648 5649 5649 5651 5652 5653 5654 5655 5657 5658 5660 5661 5662 5664 5665 5667 5669 5670 5672 5674 5676 5678 5680 5682
5656 5654 5653 5652 5651 5649 5647 5646 5645 5644 5643 5642 5640 5645 5643 5643 5642 5643 5643 5643 5643 5643 5644 5644 5645 5646 5647 5648 5649 5651 5652 5653 5655 5656 5657 5659 5660 5661 5663 5665 5666 5668 5670 5672
5652 5650 5648 5647 5649 5646 5644 5642 5641 5640 5639 5638 5637 5640 5638 5638 5637 5637 5637 5637 5638 5638 5638 5638 5639 5640 5641 5642 5642 5643 5644 5645 5647 5648 5649 5650 5651 5652 5654 5655 5657 5658 5660 5662
5648 5646 5645 5644 5642 5640 5639 5638 5637 5635 5634 5633 5633 5633 5633 5633 5632 5632 5632 5632 5632 5632 5633 5633 5633 5633 5634 5635 5635 5636 5637 5637 5638 5639 5640 5641 5642 5643 5644 5646 5647 5649 5650 5652
5643 5642 5640 5638 5636 5635 5634 5632 5631 5630 5630 5629 5628 5628 5628 5627 5627 5627 5627 5627 5627 5627 5627 5627 5627 5627 5628 5628 5629 5629 5629 5630 5630 5631 5632 5633 5634 5634 5636 5637 5638 5639 5640 5642
5638 5636 5634 5633 5632 5630 5628 5627 5626 5625 5624 5623 5623 5623 5623 5622 5622 5622 5622 5621 5621 5621 5621 5621 5621 5621 5621 5621 5622 5622 5622 5622 5623 5623 5624 5624 5625 5626 5627 5627 5629 5630 5631 5632
5633 5631 5629 5627 5626 5624 5623 5624 5622 5620 5619 5619 5617 5619 5617 5617 5617 5616 5616 5615 5615 5614 5614 5614 5614 5614 5614 5615 5615 5615 5615 5615 5615 5615 5616 5616 5617 5617 5618 5619 5620 5621 5622 5623
5628 5625 5623 5621 5620 5618 5621 5618 5616 5615 5614 5613 5613 5612 5612 5611 5611 5610 5610 5609 5609 5608 5608 5608 5607 5608 5608 5608 5608 5608 5608 5608 5608 5608 5608 5609 5609 5609 5610 5610 5611 5612 5613 5613
5622 5619 5617 5615 5613 5612 5613 5612 5610 5609 5609 5608 5607 5607 5606 5605 5605 5605 5604 5603 5602 5602 5601 5601 5601 5601 5601 5601 5601 5601 5601 5601 5601 5601 5600 5600 5600 5601 5601 5601 5601 5602 5603 5603
5616 5614 5612 5609 5607 5607 5609 5607 5604 5604 5604 5604 5602 5601 5600 5599 5599 5600 5598 5597 5596 5595 5595 5595 5594 5594 5594 5594 5594 5594 5594 5594 5594 5593 5593 5592 5592 5592 5592 5592 5592 5592 5593 5593
5610 5608 5607 5604 5602 5601 5603 5601 5599 5599 5600 5598 5596 5595 5594 5593 5592 5592 5591 5590 5589 5589 5588 5588 5587 5587 5587 5587 5587 5587 5587 5587 5586 5585 5585 5584 5583 5583 5583 5583 5583 5583 5583 5583
5604 5602 5600 5598 5596 5598 5596 5594 5593 5593 5592 5590 5589 5589 5588 5587 5586 5585 5584 5583 5583 5582 5581 5581 5581 5580 5580 5579 5579 5579 5579 5579 5578 5578 5577 5576 5575 5574 5574 5573 5573 5573 5573 5573
5598 5597 5594 5593 5593 5590 5588 5587 5586 5586 5585 5584 5583 5582 5581 5580 5580 5579 5578 5577 5576 5575 5574 5574 5573 5573 5572 5572 5572 5571 5571 5570 5570 5569 5568 5567 5566 5565 5564 5564 5563 5563 5563 5562
5593 5590 5588 5586 5585 5583 5581 5580 5579 5579 5578 5577 5577 5576 5575 5574 5573 5572 5571 5570 5569 5567 5566 5566 5565 5565 5564 5564 5563 5563 5562 5562 5561 5560 5559 5558 5557 5556 5555 5554 5553 5553 5552 5552
5586 5584 5582 5580 5579 5577 5576 5574 5574 5573 5572 5571 5570 5569 5568 5568 5567 5565 5564 5563 5561 5560 5558 5558 5557 5556 5556 5555 5555 5554 5554 5553 5552 5551 5550 5549 5547 5546 5545 5544 5543 5542 5542 5541
5580 5578 5576 5574 5573 5570 5570 5568 5567 5566 5565 5564 5564 5563 5562 5561 5560 5559 5557 5556 5554 5552 5551 5550 5549 5548 5547 5547 5546 5545 5545 5544 5543 5541 5540 5539 5537 5536 5535 5534 5533 5531 5531 5530